GW4563 Weather Reports


time (UTC)temp
C
wind
direction
speed
KPH
gust
KPH
rain 1hr
cm
rain 24hr
cm
rain mn
cm
humidity
%
barometer
mb
20260906123103 22 117 0.0 1.6 0.00 0.00 0.00 99 1016.7
20260906122556 21 156 3.2 3.2 0.00 0.00 0.00 99 1016.5
20260906122053 21 162 0.0 3.2 0.00 0.00 0.00 99 1016.8
20260906121548 21 102 0.0 3.2 0.00 0.00 0.00 99 1016.6
20260906121045 21 110 1.6 3.2 0.00 0.00 0.00 99 1016.8
20260906120539 21 114 1.6 3.2 0.00 0.00 0.00 99 1016.6
20260906120036 21 170 0.0 1.6 0.00 0.00 0.00 99 1016.5
20260906115531 21 103 1.6 1.6 0.00 0.00 0.00 99 1016.5
20260906115026 21 235 0.0 1.6 0.00 0.00 0.00 99 1016.4
20260906114520 21 118 0.0 1.6 0.00 0.00 0.00 99 1016.4
20260906114016 21 205 0.0 3.2 0.00 0.00 0.00 99 1016.5
20260906113515 21 116 0.0 3.2 0.00 0.00 0.00 99 1016.6
20260906113010 21 127 1.6 3.2 0.00 0.00 0.00 99 1016.5
20260906112505 21 100 0.0 1.6 0.00 0.00 0.00 99 1016.6
20260906112001 21 119 0.0 3.2 0.00 0.00 0.00 99 1016.5
20260906111500 21 253 0.0 1.6 0.00 0.00 0.00 99 1016.4
20260906110956 21 80 1.6 3.2 0.00 0.00 0.00 99 1016.4
20260906110451 21 85 1.6 3.2 0.00 0.00 0.00 99 1016.5
20260906105949 21 150 0.0 1.6 0.00 0.00 0.00 99 1016.3
20260906105446 21 81 0.0 3.2 0.00 0.00 0.00 99 1016.3
20260906104941 21 224 0.0 3.2 0.00 0.00 0.00 99 1016.4
20260906104440 21 118 0.0 3.2 0.00 0.00 0.00 99 1016.3
20260906103939 21 104 0.0 3.2 0.00 0.00 0.00 99 1016.7
20260906103438 21 120 0.0 3.2 0.00 0.00 0.00 99 1016.4
20260906102933 21 187 1.6 3.2 0.00 0.00 0.00 99 1016.4
20260906102433 21 311 0.0 1.6 0.00 0.00 0.00 99 1016.3
20260906101927 21 39 0.0 1.6 0.00 0.00 0.00 99 1016.4
20260906101423 21 78 0.0 1.6 0.00 0.00 0.00 99 1016.3
20260906100918 21 44 0.0 3.2 0.00 0.00 0.00 99 1016.3
20260906100417 21 356 0.0 3.2 0.00 0.00 0.00 99 1016.2
20260906095912 21 76 0.0 3.2 0.00 0.00 0.00 99 1016.3
20260906095408 21 65 0.0 3.2 0.00 0.00 0.00 99 1016.2
20260906094907 21 89 0.0 1.6 0.00 0.00 0.00 99 1016.3
20260906094403 21 60 0.0 3.2 0.00 0.00 0.00 99 1016.3
20260906093858 21 120 0.0 3.2 0.00 0.00 0.00 99 1016.2
20260906093355 21 201 1.6 3.2 0.00 0.00 0.00 99 1016.1
20260906092855 21 64 0.0 1.6 0.00 0.00 0.00 99 1016.2
20260906092355 21 132 1.6 3.2 0.00 0.00 0.00 99 1016.2
20260906091850 21 114 0.0 3.2 0.00 0.00 0.00 99 1016.2
20260906091346 21 138 0.0 3.2 0.00 0.00 0.00 99 1016.2
20260906090842 21 131 0.0 3.2 0.00 0.00 0.00 99 1016.1
20260906090342 21 127 3.2 3.2 0.00 0.00 0.00 99 1016.3
20260906085836 21 83 1.6 3.2 0.00 0.00 0.00 99 1016.1
20260906085330 21 315 0.0 1.6 0.00 0.00 0.00 99 1016.0
20260906084825 21 69 0.0 3.2 0.00 0.00 0.00 99 1016.1
20260906084324 21 203 0.0 3.2 0.00 0.00 0.00 99 1016.1
20260906083819 21 85 1.6 3.2 0.00 0.00 0.00 99 1015.8
20260906083314 21 106 3.2 3.2 0.00 0.00 0.00 99 1015.7
20260906082809 21 152 3.2 3.2 0.00 0.00 0.00 99 1015.7
20260906082306 21 155 0.0 3.2 0.00 0.00 0.00 99 1015.9
20260906081759 21 108 1.6 3.2 0.00 0.00 0.00 99 1015.8
20260906081255 21 137 0.0 1.6 0.00 0.00 0.00 99 1016.0
20260906080752 21 268 0.0 3.2 0.00 0.00 0.00 99 1015.8
20260906080248 21 78 1.6 3.2 0.00 0.00 0.00 99 1015.9
20260906075747 21 53 0.0 3.2 0.00 0.00 0.00 99 1015.9
20260906075247 21 95 1.6 3.2 0.00 0.00 0.00 99 1016.0
20260906074743 21 65 0.0 3.2 0.00 0.00 0.00 99 1015.8
20260906074242 21 153 0.0 3.2 0.00 0.00 0.00 99 1015.9
20260906073741 21 123 3.2 3.2 0.00 0.00 0.00 99 1015.8
20260906073236 21 122 0.0 3.2 0.00 0.00 0.00 99 1016.1
20260906072732 21 88 0.0 3.2 0.00 0.00 0.00 99 1015.9
20260906072228 21 148 1.6 3.2 0.00 0.00 0.00 99 1016.0
20260906071724 21 269 0.0 1.6 0.00 0.00 0.00 99 1016.4
20260906071224 21 138 0.0 1.6 0.00 0.00 0.00 99 1016.0
20260906070720 21 156 1.6 3.2 0.00 0.00 0.00 99 1016.0
20260906070216 21 236 0.0 1.6 0.00 0.00 0.00 99 1016.1
20260906065715 21 36 0.0 3.2 0.00 0.00 0.00 99 1016.1
20260906065210 21 85 1.6 3.2 0.00 0.00 0.00 99 1016.3
20260906064706 21 126 0.0 3.2 0.00 0.00 0.00 99 1016.3
20260906064201 21 112 0.0 3.2 0.00 0.00 0.00 99 1016.2
20260906063656 21 166 0.0 1.6 0.00 0.00 0.00 99 1016.1
20260906063152 22 146 0.0 3.2 0.00 0.00 0.00 99 1016.1
20260906062648 22 138 1.6 3.2 0.00 0.00 0.00 99 1016.2
20260906062146 22 95 1.6 3.2 0.00 0.00 0.00 99 1016.2
20260906061643 22 115 0.0 3.2 0.00 0.00 0.00 99 1016.3
20260906061142 22 168 1.6 3.2 0.00 0.00 0.00 99 1016.4
20260906060639 22 154 0.0 3.2 0.00 0.00 0.00 99 1016.3
20260906060136 22 137 1.6 3.2 0.00 0.00 0.00 99 1016.4
20260906055631 22 124 0.0 3.2 0.00 0.00 0.00 99 1016.3
20260906055126 22 116 0.0 3.2 0.00 0.00 0.00 99 1016.2
20260906054621 22 116 1.6 3.2 0.00 0.00 0.00 99 1016.3
20260906054116 22 138 1.6 3.2 0.00 0.00 0.00 99 1016.3
20260906053613 22 106 0.0 1.6 0.00 0.00 0.00 99 1016.3
20260906053108 22 32 0.0 1.6 0.00 0.00 0.00 99 1016.3
20260906052603 22 111 0.0 1.6 0.00 0.00 0.00 99 1016.6
20260906052100 22 177 1.6 3.2 0.00 0.00 0.00 99 1016.5
20260906051556 22 150 3.2 3.2 0.00 0.00 0.00 99 1016.7
20260906051051 22 249 0.0 1.6 0.00 0.00 0.00 99 1016.5
20260906050546 22 118 0.0 1.6 0.00 0.00 0.00 99 1016.5
20260906050041 22 40 0.0 3.2 0.00 0.00 0.00 99 1016.4
20260906045539 22 53 0.0 1.6 0.00 0.00 0.00 99 1016.6
20260906045035 22 123 1.6 3.2 0.00 0.00 0.00 99 1016.6
20260906044531 22 253 0.0 3.2 0.00 0.00 0.00 99 1016.4
20260906044026 22 195 1.6 3.2 0.00 0.00 0.00 99 1016.6
20260906043521 22 105 1.6 3.2 0.00 0.00 0.00 99 1016.4
20260906043018 22 136 0.0 3.2 0.00 0.00 0.00 99 1016.5
20260906042517 22 185 3.2 3.2 0.00 0.00 0.00 99 1016.4
20260906042017 22 175 0.0 3.2 0.00 0.00 0.00 99 1016.4
20260906041513 22 283 0.0 1.6 0.00 0.00 0.00 99 1016.5
20260906041013 22 138 0.0 3.2 0.00 0.00 0.00 99 1016.3
20260906040508 22 221 0.0 1.6 0.00 0.00 0.00 99 1016.5
20260906040003 22 122 0.0 1.6 0.00 0.00 0.00 99 1016.2
20260906035458 22 64 0.0 1.6 0.00 0.00 0.00 99 1016.3
20260906034954 22 66 0.0 3.2 0.00 0.00 0.00 99 1016.5
20260906034454 22 166 0.0 3.2 0.00 0.00 0.00 99 1016.3
20260906033949 22 57 3.2 3.2 0.00 0.00 0.00 99 1016.7
20260906033444 22 110 3.2 3.2 0.00 0.00 0.00 99 1016.5
20260906032940 22 10 0.0 3.2 0.00 0.00 0.00 99 1016.5
20260906032437 22 39 1.6 3.2 0.00 0.00 0.00 99 1016.4
20260906031930 22 269 0.0 3.2 0.00 0.00 0.00 99 1016.7
20260906031426 22 256 0.0 3.2 0.00 0.00 0.00 99 1016.8
20260906030921 22 0 0.0 1.6 0.00 0.00 0.00 99 1016.8
20260906030415 22 178 1.6 3.2 0.00 0.00 0.00 99 1017.1
20260906025910 22 235 1.6 1.6 0.00 0.00 0.00 99 1017.0
20260906025404 22 91 3.2 3.2 0.00 0.00 0.00 99 1017.4
20260906024903 22 83 1.6 3.2 0.00 0.00 0.00 99 1017.5
20260906024402 22 32 0.0 1.6 0.00 0.00 0.00 99 1017.3
20260906023858 22 77 1.6 3.2 0.00 0.00 0.00 99 1017.5
20260906023354 22 138 1.6 3.2 0.00 0.00 0.00 99 1017.6
20260906022854 22 141 1.6 3.2 0.00 0.00 0.00 99 1017.3
20260906022349 22 51 0.0 3.2 0.00 0.00 0.00 99 1017.0
20260906021845 22 230 0.0 3.2 0.00 0.00 0.00 99 1017.2
20260906021344 22 106 0.0 1.6 0.00 0.00 0.00 99 1017.2
20260906020839 22 217 3.2 3.2 0.00 0.00 0.00 99 1017.3
20260906020338 22 98 1.6 3.2 0.00 0.00 0.00 99 1017.3
20260906015833 22 111 3.2 4.8 0.00 0.00 0.00 99 1017.3
20260906015332 22 187 0.0 3.2 0.00 0.00 0.00 99 1017.4
20260906014826 22 204 1.6 4.8 0.00 0.00 0.00 99 1017.2
20260906014321 22 195 0.0 3.2 0.00 0.00 0.00 99 1017.0
20260906013817 22 152 0.0 3.2 0.00 0.00 0.00 99 1017.0
20260906013313 22 182 3.2 3.2 0.00 0.00 0.00 99 1017.1
20260906012808 22 135 1.6 3.2 0.00 0.00 0.00 99 1017.0
20260906012306 22 186 0.0 3.2 0.00 0.00 0.00 99 1016.8
20260906011758 22 224 0.0 3.2 0.00 0.00 0.00 99 1017.2
20260906011257 22 187 1.6 3.2 0.00 0.00 0.00 99 1017.1
20260906010753 22 94 0.0 3.2 0.00 0.00 0.00 99 1017.0
20260906010249 22 237 3.2 4.8 0.00 0.00 0.00 99 1016.6
20260906005744 22 175 0.0 3.2 0.00 0.00 0.00 99 1016.6
20260906005244 22 180 0.0 3.2 0.00 0.00 0.00 99 1016.1
20260906004737 22 139 0.0 3.2 0.00 0.00 0.00 99 1016.3
20260906004232 22 127 1.6 3.2 0.00 0.00 0.00 99 1016.5
20260906003727 22 142 1.6 4.8 0.00 0.00 0.00 99 1016.2
20260906003223 22 99 3.2 4.8 0.00 0.00 0.00 99 1016.0
20260906002723 22 65 1.6 3.2 0.00 0.00 0.00 99 1015.8
20260906002218 22 201 1.6 3.2 0.00 0.00 0.00 99 1015.9
20260906001713 22 98 3.2 4.8 0.00 0.00 0.00 99 1015.8
20260906001213 22 205 3.2 4.8 0.00 0.00 0.00 99 1016.0
20260906000708 22 128 1.6 3.2 0.00 0.00 0.00 99 1016.0
20260906000204 22 145 3.2 3.2 0.00 0.00 0.00 99 1016.1
20260905235702 22 221 4.8 6.4 0.00 0.00 0.00 99 1016.3
20260905235157 23 126 4.8 6.4 0.00 0.00 0.00 98 1016.3
20260905234653 23 152 4.8 4.8 0.00 0.00 0.00 98 1016.5
20260905234148 23 197 6.4 8.0 0.00 0.00 0.00 97 1016.8
20260905233643 24 209 6.4 6.4 0.00 0.00 0.00 94 1016.6
20260905233142 26 223 6.4 6.4 0.00 0.00 0.00 88 1016.6
20260905232638 28 129 1.6 3.2 0.00 0.00 0.00 79 1016.2
20260905232134 30 180 3.2 6.4 0.00 0.00 0.00 75 1016.0
20260905231629 30 24 4.8 6.4 0.00 0.00 0.00 74 1015.1
20260905231125 30 144 1.6 4.8 0.00 0.00 0.00 79 1015.0
20260905230620 30 275 1.6 3.2 0.00 0.00 0.00 78 1015.0
20260905230119 31 177 1.6 4.8 0.00 0.00 0.00 76 1015.0
20260905225618 30 113 0.0 3.2 0.00 0.00 0.00 76 1015.2
20260905225108 30 48 4.8 4.8 0.00 0.00 0.00 77 1015.0
20260905224607 30 157 0.0 3.2 0.00 0.00 0.00 78 1014.9
20260905224106 30 113 1.6 4.8 0.00 0.00 0.00 79 1014.9
20260905223604 30 100 3.2 3.2 0.00 0.00 0.00 79 1015.0
20260905223100 30 62 0.0 3.2 0.00 0.00 0.00 79 1014.9
20260905222600 30 91 3.2 8.0 0.00 0.00 0.00 76 1014.7
20260905222055 30 163 3.2 3.2 0.00 0.00 0.00 80 1014.6
20260905221551 31 132 0.0 3.2 0.00 0.00 0.00 77 1014.5
20260905221047 30 89 0.0 3.2 0.00 0.00 0.00 79 1014.7
20260905220543 31 102 6.4 6.4 0.00 0.00 0.00 77 1014.6
20260905220039 31 138 0.0 3.2 0.00 0.00 0.00 75 1014.6
20260905215538 30 52 3.2 4.8 0.00 0.00 0.00 78 1014.6
20260905215034 31 130 0.0 3.2 0.00 0.00 0.00 78 1014.4
20260905214530 32 87 3.2 8.0 0.00 0.00 0.00 74 1014.3
20260905214025 32 220 1.6 3.2 0.00 0.00 0.00 73 1014.5
20260905213520 33 170 1.6 1.6 0.00 0.00 0.00 70 1014.4
20260905213016 32 174 0.0 3.2 0.00 0.00 0.00 72 1014.5
20260905212510 33 146 1.6 3.2 0.00 0.00 0.00 67 1014.3
20260905212010 32 205 0.0 1.6 0.00 0.00 0.00 69 1014.4
20260905211505 31 122 1.6 3.2 0.00 0.00 0.00 80 1014.5
20260905211001 31 161 0.0 1.6 0.00 0.00 0.00 82 1014.6
20260905210456 31 135 0.0 1.6 0.00 0.00 0.00 81 1014.6
20260905205955 31 132 1.6 1.6 0.00 0.00 0.00 81 1015.0
20260905205450 31 124 0.0 1.6 0.00 0.00 0.00 82 1014.6
20260905204949 31 125 1.6 3.2 0.00 0.00 0.00 82 1014.9
20260905204445 31 139 0.0 1.6 0.00 0.00 0.00 82 1014.7
20260905203944 31 163 0.0 1.6 0.00 0.00 0.00 84 1015.0
20260905203440 30 144 0.0 3.2 0.00 0.00 0.00 87 1015.2
20260905202935 30 61 1.6 3.2 0.00 0.00 0.00 88 1015.2
20260905202430 28 132 1.6 1.6 0.00 0.00 0.00 90 1015.2
20260905201926 27 177 0.0 3.2 0.00 0.00 0.00 92 1015.4
20260905201421 27 152 0.0 1.6 0.00 0.00 0.00 90 1015.5
20260905200921 26 204 3.2 3.2 0.00 0.00 0.00 91 1015.5
20260905200417 27 213 1.6 3.2 0.00 0.00 0.00 86 1015.7
20260905195914 28 105 1.6 3.2 0.00 0.00 0.00 82 1015.8
20260905195410 31 318 3.2 4.8 0.00 0.00 0.00 72 1015.9
20260905194906 31 116 0.0 3.2 0.00 0.00 0.00 67 1015.9
20260905194405 31 143 1.6 3.2 0.00 0.00 0.00 66 1015.9
20260905193859 32 119 0.0 3.2 0.00 0.00 0.00 65 1015.8
20260905193354 32 114 0.0 3.2 0.00 0.00 0.00 63 1016.0
20260905192850 32 110 3.2 3.2 0.00 0.00 0.00 63 1016.0
20260905192345 33 129 0.0 3.2 0.00 0.00 0.00 59 1016.1
20260905191844 35 124 3.2 3.2 0.00 0.00 0.00 55 1016.1
20260905191344 36 104 0.0 3.2 0.00 0.00 0.00 54 1016.0
20260905190837 36 128 1.6 3.2 0.00 0.00 0.00 54 1016.1
20260905190331 35 184 1.6 3.2 0.00 0.00 0.00 50 1016.1
20260905185829 35 243 1.6 4.8 0.00 0.00 0.00 51 1016.3
20260905185324 35 226 3.2 3.2 0.00 0.00 0.00 55 1016.2
20260905184818 33 195 0.0 4.8 0.00 0.00 0.00 60 1016.0
20260905184317 32 84 3.2 6.4 0.00 0.00 0.00 62 1016.3
20260905183816 33 112 3.2 3.2 0.00 0.00 0.00 60 1016.4
20260905183312 35 61 0.0 3.2 0.00 0.00 0.00 56 1016.7
20260905182812 36 96 1.6 1.6 0.00 0.00 0.00 55 1016.7
20260905182306 35 203 1.6 3.2 0.00 0.00 0.00 55 1016.7
20260905181802 36 117 3.2 3.2 0.00 0.00 0.00 53 1016.7
20260905181301 35 220 3.2 3.2 0.00 0.00 0.00 54 1016.8
20260905180800 35 104 0.0 3.2 0.00 0.00 0.00 55 1016.7
20260905180255 35 248 4.8 6.4 0.00 0.00 0.00 52 1016.9
20260905175750 35 110 1.6 4.8 0.00 0.00 0.00 56 1016.8
20260905175245 35 114 1.6 3.2 0.00 0.00 0.00 55 1016.7
20260905174739 34 112 3.2 4.8 0.00 0.00 0.00 62 1017.1
20260905174235 35 41 3.2 6.4 0.00 0.00 0.00 52 1017.1
20260905173732 34 202 3.2 3.2 0.00 0.00 0.00 54 1017.2
20260905173227 33 217 0.0 4.8 0.00 0.00 0.00 57 1017.3
20260905172726 35 55 0.0 1.6 0.00 0.00 0.00 55 1017.4
20260905172220 36 147 0.0 3.2 0.00 0.00 0.00 53 1017.4
20260905171716 35 243 1.6 6.4 0.00 0.00 0.00 54 1017.4
20260905171212 35 185 0.0 1.6 0.00 0.00 0.00 56 1017.3
20260905170709 35 157 3.2 6.4 0.00 0.00 0.00 56 1017.4
20260905170209 34 180 6.4 6.4 0.00 0.00 0.00 55 1017.6
20260905165704 33 212 3.2 8.0 0.00 0.00 0.00 56 1017.6
20260905165159 33 105 3.2 3.2 0.00 0.00 0.00 60 1017.6
20260905164653 32 70 1.6 3.2 0.00 0.00 0.00 61 1017.6
20260905164153 33 125 3.2 4.8 0.00 0.00 0.00 65 1017.8
20260905163649 32 201 3.2 3.2 0.00 0.00 0.00 61 1017.9
20260905163146 32 237 3.2 4.8 0.00 0.00 0.00 59 1017.8
20260905162642 32 120 4.8 4.8 0.00 0.00 0.00 66 1018.1
20260905162141 32 48 3.2 6.4 0.00 0.00 0.00 62 1018.1
20260905161640 32 208 4.8 6.4 0.00 0.00 0.00 61 1018.0
20260905161138 31 181 1.6 3.2 0.00 0.00 0.00 66 1018.0
20260905160632 32 126 0.0 4.8 0.00 0.00 0.00 62 1018.2
20260905160126 32 187 3.2 3.2 0.00 0.00 0.00 64 1018.3
20260905155626 31 200 3.2 6.4 0.00 0.00 0.00 63 1018.4
20260905155125 30 84 3.2 3.2 0.00 0.00 0.00 76 1018.2
20260905154620 30 92 3.2 3.2 0.00 0.00 0.00 72 1018.1
20260905154115 30 119 1.6 3.2 0.00 0.00 0.00 70 1018.4
20260905153611 30 111 1.6 3.2 0.00 0.00 0.00 69 1018.3
20260905153106 30 100 3.2 4.8 0.00 0.00 0.00 70 1018.4
20260905152601 30 125 1.6 3.2 0.00 0.00 0.00 70 1018.4
20260905152055 30 147 1.6 3.2 0.00 0.00 0.00 69 1018.6
20260905151551 29 121 0.0 3.2 0.00 0.00 0.00 76 1018.4
20260905151046 28 266 0.0 4.8 0.00 0.00 0.00 79 1018.2
20260905150541 29 195 1.6 3.2 0.00 0.00 0.00 69 1018.4
20260905150039 29 197 0.0 3.2 0.00 0.00 0.00 74 1018.4
20260905145532 29 231 0.0 3.2 0.00 0.00 0.00 71 1018.7
20260905145026 29 187 3.2 3.2 0.00 0.00 0.00 70 1018.6
20260905144521 29 18 1.6 3.2 0.00 0.00 0.00 76 1018.8
20260905144020 28 235 0.0 3.2 0.00 0.00 0.00 74 1018.8
20260905143519 28 222 4.8 4.8 0.00 0.00 0.00 75 1018.7
20260905143015 27 200 1.6 3.2 0.00 0.00 0.00 80 1019.0
20260905142513 28 84 0.0 3.2 0.00 0.00 0.00 79 1018.8
20260905142009 27 29 0.0 3.2 0.00 0.00 0.00 80 1018.9
20260905141509 27 156 0.0 6.4 0.00 0.00 0.00 80 1018.7
20260905141006 26 124 0.0 3.2 0.00 0.00 0.00 86 1018.8
20260905140500 26 265 0.0 1.6 0.00 0.00 0.00 88 1018.8
20260905135959 26 82 0.0 0.0 0.00 0.00 0.00 89 1018.7
20260905135455 25 62 0.0 1.6 0.00 0.00 0.00 90 1018.8
20260905134950 25 183 0.0 3.2 0.00 0.00 0.00 91 1018.8
20260905134449 25 100 1.6 1.6 0.00 0.00 0.00 91 1018.8
20260905133948 25 116 0.0 3.2 0.00 0.00 0.00 92 1018.9
20260905133443 25 145 1.6 3.2 0.00 0.00 0.00 92 1018.9
20260905132937 25 134 1.6 3.2 0.00 0.00 0.00 93 1018.9
20260905132432 24 115 0.0 3.2 0.00 0.00 0.00 94 1019.0
20260905131928 24 89 0.0 3.2 0.00 0.00 0.00 95 1018.9
20260905131424 24 122 1.6 3.2 0.00 0.00 0.00 96 1018.9
20260905130923 23 107 1.6 3.2 0.00 0.00 0.00 96 1019.1
20260905130418 23 221 0.0 1.6 0.00 0.00 0.00 98 1019.2
20260905125917 23 66 0.0 3.2 0.00 0.00 0.00 99 1019.1
20260905125413 23 82 0.0 1.6 0.00 0.00 0.00 99 1019.0
20260905124908 23 151 0.0 3.2 0.00 0.00 0.00 99 1019.0
20260905124404 23 247 0.0 3.2 0.00 0.00 0.00 99 1019.0
20260905123904 22 181 1.6 1.6 0.00 0.00 0.00 99 1019.1
20260905123401 22 129 0.0 1.6 0.00 0.00 0.00 99 1019.1